OCN530 EDDF-LEIB

Flight info

Callsign OCN530
Flight time 2h 10m
Altitude 37000
Route ANEKI2L/18 ANEKI Y163 HERBI Y164 MOPAN DCT LUTIX DCT BENOT DCT NEMOS DCT GEVEA DCT INCUS DCT BALSI DCT RETNO DCT TUPOX DCT MTG DCT DIVKO DCT VATIR DCT PIVUS DCT SULID DCT DIMIB/N0443F390 DCT POS
Aircraft A320/M-SDE2E3FGIJ1LORWXYZ/HB1

Departure

Time 2026-05-05 11:25
Airport Frankfurt Main Airport (EDDF)

Arrival

Time 2026-05-05 13:35
Airport Ibiza Airport (LEIB)
Time Latitude Longitude Altitude Speed Heading
2026-05-05 10:46 50.04453 8.56431 356 ft 0 kts 154°
2026-05-05 11:13 50.04471 8.56417 360 ft 3 kts 153°
2026-05-05 11:14 50.04491 8.56402 361 ft 3 kts 163°
2026-05-05 11:14 50.04510 8.56398 359 ft 3 kts 210°
2026-05-05 11:14 50.04526 8.56415 356 ft 3 kts 215°
2026-05-05 11:14 50.04545 8.56434 362 ft 3 kts 208°
2026-05-05 11:15 50.04565 8.56450 364 ft 3 kts 204°
2026-05-05 11:15 50.04570 8.56453 363 ft 0 kts 204°
2026-05-05 11:17 50.04568 8.56452 363 ft 4 kts 204°
2026-05-05 11:18 50.04520 8.56392 362 ft 12 kts 239°
2026-05-05 11:18 50.04492 8.56282 357 ft 11 kts 250°
2026-05-05 11:18 50.04465 8.56165 362 ft 13 kts 249°
2026-05-05 11:18 50.04426 8.56041 356 ft 11 kts 223°
2026-05-05 11:19 50.04360 8.56045 360 ft 11 kts 159°
2026-05-05 11:19 50.04291 8.56066 358 ft 12 kts 194°
2026-05-05 11:19 50.04244 8.55959 356 ft 15 kts 250°
2026-05-05 11:19 50.04203 8.55791 360 ft 18 kts 248°
2026-05-05 11:20 50.04157 8.55598 357 ft 21 kts 249°
2026-05-05 11:20 50.04106 8.55381 359 ft 22 kts 250°
2026-05-05 11:20 50.04051 8.55155 360 ft 23 kts 249°
2026-05-05 11:20 50.03994 8.54914 359 ft 25 kts 249°
2026-05-05 11:21 50.03933 8.54663 355 ft 24 kts 249°
2026-05-05 11:21 50.03880 8.54440 356 ft 22 kts 250°
2026-05-05 11:21 50.03804 8.54234 351 ft 23 kts 244°
2026-05-05 11:21 50.03747 8.54001 351 ft 22 kts 250°
2026-05-05 11:22 50.03689 8.53764 345 ft 25 kts 249°
2026-05-05 11:22 50.03627 8.53516 338 ft 25 kts 249°
2026-05-05 11:22 50.03569 8.53270 338 ft 24 kts 250°
2026-05-05 11:22 50.03518 8.53058 335 ft 22 kts 250°
2026-05-05 11:23 50.03468 8.52858 333 ft 15 kts 246°
2026-05-05 11:23 50.03440 8.52755 336 ft 7 kts 249°
2026-05-05 11:23 50.03418 8.52665 332 ft 10 kts 250°
2026-05-05 11:23 50.03383 8.52594 335 ft 8 kts 199°
2026-05-05 11:24 50.03362 8.52593 335 ft 0 kts 180°
2026-05-05 11:24 50.03240 8.52595 335 ft 54 kts 179°
2026-05-05 11:24 50.02628 8.52601 333 ft 119 kts 179°
2026-05-05 11:24 50.01620 8.52612 336 ft 168 kts 179°
2026-05-05 11:25 50.00362 8.52644 726 ft 183 kts 178°
2026-05-05 11:25 49.99092 8.52719 1526 ft 182 kts 178°
2026-05-05 11:25 49.97782 8.52806 2024 ft 198 kts 177°
2026-05-05 11:25 49.96330 8.52904 2399 ft 218 kts 177°
2026-05-05 11:26 49.94763 8.53013 3093 ft 229 kts 177°
2026-05-05 11:26 49.93173 8.53127 4121 ft 229 kts 178°
2026-05-05 11:26 49.91579 8.53240 5059 ft 230 kts 178°
2026-05-05 11:26 49.89971 8.53352 5899 ft 232 kts 178°
2026-05-05 11:27 49.88344 8.53465 6682 ft 236 kts 178°
2026-05-05 11:27 49.86699 8.53577 7516 ft 237 kts 178°
2026-05-05 11:27 49.85043 8.53688 8337 ft 240 kts 178°
2026-05-05 11:27 49.83359 8.53802 9171 ft 243 kts 177°
2026-05-05 11:28 49.81659 8.53915 9985 ft 246 kts 177°
2026-05-05 11:28 49.79937 8.54031 10743 ft 249 kts 177°
2026-05-05 11:28 49.78197 8.54135 11501 ft 252 kts 181°
2026-05-05 11:28 49.76396 8.53943 11921 ft 271 kts 185°
2026-05-05 11:29 49.74432 8.53687 12175 ft 295 kts 185°
2026-05-05 11:29 49.72310 8.53400 12399 ft 318 kts 185°
2026-05-05 11:29 49.70824 8.53196 12692 ft 327 kts 185°
2026-05-05 11:29 49.68537 8.52882 13364 ft 333 kts 185°
2026-05-05 11:30 49.66220 8.52569 14049 ft 337 kts 185°
2026-05-05 11:30 49.63875 8.52256 14752 ft 338 kts 185°
2026-05-05 11:30 49.61524 8.51946 15445 ft 340 kts 185°
2026-05-05 11:30 49.59164 8.51635 16128 ft 342 kts 185°
2026-05-05 11:31 49.56782 8.51320 16813 ft 345 kts 185°
2026-05-05 11:31 49.54375 8.51007 17485 ft 348 kts 185°
2026-05-05 11:31 49.51958 8.50693 18146 ft 350 kts 185°
2026-05-05 11:31 49.49520 8.50376 18708 ft 353 kts 185°
2026-05-05 11:32 49.47063 8.50060 19257 ft 356 kts 185°
2026-05-05 11:32 49.44587 8.49738 19804 ft 359 kts 185°
2026-05-05 11:32 49.42097 8.49408 20376 ft 361 kts 185°
2026-05-05 11:32 49.39588 8.49073 20922 ft 364 kts 185°
2026-05-05 11:33 49.37159 8.48752 21451 ft 367 kts 185°
2026-05-05 11:33 49.34580 8.48414 21995 ft 370 kts 185°
2026-05-05 11:33 49.32007 8.48076 22505 ft 373 kts 185°
2026-05-05 11:33 49.29418 8.47739 23012 ft 376 kts 185°
2026-05-05 11:34 49.26858 8.47407 23485 ft 378 kts 185°
2026-05-05 11:34 49.24176 8.47061 23914 ft 381 kts 185°
2026-05-05 11:34 49.21540 8.46724 24354 ft 382 kts 185°
2026-05-05 11:34 49.18892 8.46383 24828 ft 382 kts 185°
2026-05-05 11:35 49.16237 8.46039 25281 ft 383 kts 185°
2026-05-05 11:35 49.13576 8.45694 25718 ft 384 kts 185°
2026-05-05 11:35 49.10907 8.45349 26144 ft 386 kts 185°
2026-05-05 11:35 49.08227 8.45001 26562 ft 387 kts 185°
2026-05-05 11:36 49.05555 8.44482 26975 ft 388 kts 192°
2026-05-05 11:36 49.02917 8.43563 27373 ft 390 kts 192°
2026-05-05 11:36 49.00266 8.42634 27780 ft 391 kts 192°
2026-05-05 11:36 48.97608 8.41704 28177 ft 393 kts 192°
2026-05-05 11:37 48.94937 8.40774 28573 ft 395 kts 192°
2026-05-05 11:37 48.92254 8.39841 28981 ft 397 kts 192°
2026-05-05 11:37 48.89555 8.38904 29384 ft 398 kts 192°
2026-05-05 11:37 48.86846 8.37962 29778 ft 400 kts 192°
2026-05-05 11:38 48.84127 8.37019 30117 ft 402 kts 192°
2026-05-05 11:38 48.81398 8.36077 30427 ft 403 kts 192°
2026-05-05 11:38 48.78665 8.35138 30730 ft 404 kts 192°
2026-05-05 11:38 48.75921 8.34174 31007 ft 405 kts 192°
2026-05-05 11:39 48.73171 8.33176 31271 ft 407 kts 192°
2026-05-05 11:39 48.70420 8.32158 31625 ft 406 kts 192°
2026-05-05 11:39 48.67684 8.31135 32039 ft 404 kts 192°
2026-05-05 11:39 48.64957 8.30120 32455 ft 402 kts 192°
2026-05-05 11:40 48.62247 8.29122 32870 ft 400 kts 192°
2026-05-05 11:40 48.59550 8.28137 33280 ft 398 kts 192°
2026-05-05 11:40 48.56859 8.27164 33709 ft 396 kts 192°
2026-05-05 11:40 48.54185 8.26200 34099 ft 395 kts 192°
2026-05-05 11:41 48.51514 8.25241 34383 ft 395 kts 192°
2026-05-05 11:41 48.48841 8.24278 34598 ft 396 kts 192°
2026-05-05 11:41 48.46160 8.23306 34843 ft 396 kts 193°
2026-05-05 11:41 48.43514 8.22339 35088 ft 397 kts 193°
2026-05-05 11:42 48.40828 8.21353 35316 ft 398 kts 193°
2026-05-05 11:42 48.38135 8.20366 35518 ft 399 kts 193°
2026-05-05 11:42 48.35439 8.19379 35737 ft 400 kts 193°
2026-05-05 11:42 48.32726 8.18388 35890 ft 402 kts 193°
2026-05-05 11:43 48.30007 8.17400 36084 ft 403 kts 193°
2026-05-05 11:43 48.27277 8.16415 36293 ft 404 kts 193°
2026-05-05 11:43 48.24574 8.15267 36486 ft 404 kts 200°
2026-05-05 11:43 48.22009 8.13521 36679 ft 405 kts 205°
2026-05-05 11:44 48.19481 8.11637 36850 ft 407 kts 206°
2026-05-05 11:44 48.14408 8.07876 36883 ft 407 kts 206°
2026-05-05 11:45 48.09313 8.04127 36887 ft 408 kts 206°
2026-05-05 11:45 48.04215 8.00376 36888 ft 408 kts 206°
2026-05-05 11:46 47.99117 7.96624 36886 ft 408 kts 206°
2026-05-05 11:46 47.94017 7.92882 36890 ft 408 kts 206°
2026-05-05 11:47 47.88913 7.89159 36888 ft 408 kts 206°
2026-05-05 11:47 47.83813 7.85448 36890 ft 408 kts 206°
2026-05-05 11:48 47.76166 7.79872 36893 ft 408 kts 206°
2026-05-05 11:48 47.71072 7.76166 36890 ft 407 kts 206°
2026-05-05 11:49 47.65990 7.72481 36892 ft 407 kts 206°
2026-05-05 11:49 47.60904 7.68809 36893 ft 407 kts 206°
2026-05-05 11:50 47.55819 7.65145 36892 ft 407 kts 206°
2026-05-05 11:50 47.50738 7.61494 36891 ft 405 kts 206°
2026-05-05 11:51 47.45665 7.57846 36891 ft 405 kts 206°
2026-05-05 11:51 47.40597 7.54211 36888 ft 405 kts 206°
2026-05-05 11:52 47.35519 7.50592 36888 ft 405 kts 206°
2026-05-05 11:52 47.30446 7.46979 36904 ft 405 kts 206°
2026-05-05 11:53 47.25372 7.43359 36892 ft 404 kts 206°
2026-05-05 11:53 47.20363 7.39796 36892 ft 402 kts 206°
2026-05-05 11:54 47.15724 7.35280 36892 ft 402 kts 223°
2026-05-05 11:54 47.12132 7.28956 36893 ft 404 kts 230°
2026-05-05 11:55 47.08623 7.22507 36893 ft 404 kts 230°
2026-05-05 11:55 47.05103 7.16069 36897 ft 404 kts 230°
2026-05-05 11:56 47.01588 7.09639 36910 ft 404 kts 230°
2026-05-05 11:56 46.98073 7.03195 36918 ft 405 kts 230°
2026-05-05 11:57 46.94557 6.96771 36921 ft 404 kts 230°
2026-05-05 11:57 46.90944 6.90481 36934 ft 403 kts 222°
2026-05-05 11:58 46.86645 6.85230 36924 ft 403 kts 218°
2026-05-05 11:58 46.82298 6.80048 36918 ft 403 kts 218°
2026-05-05 11:59 46.77950 6.74870 36915 ft 404 kts 218°
2026-05-05 11:59 46.73600 6.69704 36911 ft 403 kts 219°
2026-05-05 12:00 46.69251 6.64550 36918 ft 403 kts 219°
2026-05-05 12:00 46.64898 6.59407 36921 ft 403 kts 219°
2026-05-05 12:01 46.60548 6.54275 36923 ft 403 kts 219°
2026-05-05 12:01 46.56196 6.49164 36922 ft 402 kts 219°
2026-05-05 12:02 46.51840 6.44053 36951 ft 403 kts 218°
2026-05-05 12:02 46.47480 6.38938 36932 ft 403 kts 218°
2026-05-05 12:03 46.43117 6.33832 36931 ft 403 kts 218°
2026-05-05 12:03 46.38745 6.28733 36925 ft 403 kts 218°
2026-05-05 12:04 46.34377 6.23652 36932 ft 403 kts 218°
2026-05-05 12:04 46.30014 6.18592 36934 ft 403 kts 218°
2026-05-05 12:05 46.25387 6.14065 36929 ft 403 kts 205°
2026-05-05 12:05 46.20014 6.12020 36916 ft 405 kts 191°
2026-05-05 12:06 46.14410 6.10790 36915 ft 405 kts 191°
2026-05-05 12:06 46.08842 6.09558 36916 ft 405 kts 191°
2026-05-05 12:07 46.03309 6.08325 36948 ft 405 kts 191°
2026-05-05 12:07 45.97733 6.07088 36940 ft 405 kts 192°
2026-05-05 12:08 45.92171 6.05862 36952 ft 404 kts 192°
2026-05-05 12:08 45.86618 6.04639 36955 ft 403 kts 192°
2026-05-05 12:09 45.81069 6.03417 36948 ft 403 kts 192°
2026-05-05 12:09 45.75528 6.02184 36949 ft 402 kts 192°
2026-05-05 12:10 45.69995 6.00957 36954 ft 402 kts 192°
2026-05-05 12:10 45.64475 5.99735 36957 ft 402 kts 192°
2026-05-05 12:11 45.58947 5.98519 36954 ft 402 kts 192°
2026-05-05 12:11 45.53429 5.97311 36952 ft 401 kts 192°
2026-05-05 12:12 45.47909 5.96107 36950 ft 401 kts 193°
2026-05-05 12:12 45.42445 5.94606 36945 ft 399 kts 196°
2026-05-05 12:13 45.37082 5.92833 36940 ft 398 kts 197°
2026-05-05 12:13 45.31690 5.91061 36940 ft 398 kts 197°
2026-05-05 12:14 45.26285 5.89368 36934 ft 398 kts 196°
2026-05-05 12:14 45.20880 5.87702 36929 ft 398 kts 196°
2026-05-05 12:15 45.15477 5.86032 36932 ft 397 kts 196°
2026-05-05 12:15 45.10087 5.84366 36933 ft 396 kts 196°
2026-05-05 12:16 45.05609 5.82979 36934 ft 396 kts 196°
2026-05-05 12:16 45.00238 5.81316 36923 ft 395 kts 197°
2026-05-05 12:17 44.94871 5.79671 36931 ft 394 kts 197°
2026-05-05 12:17 44.89514 5.78032 36937 ft 393 kts 197°
2026-05-05 12:18 44.84173 5.76390 36925 ft 393 kts 197°
2026-05-05 12:18 44.78847 5.74753 36940 ft 391 kts 197°
2026-05-05 12:19 44.73531 5.73134 36944 ft 390 kts 197°
2026-05-05 12:19 44.68231 5.71521 36944 ft 390 kts 197°
2026-05-05 12:20 44.62937 5.69906 36947 ft 390 kts 197°
2026-05-05 12:20 44.57637 5.68292 36943 ft 390 kts 197°
2026-05-05 12:21 44.52338 5.66684 36941 ft 390 kts 197°
2026-05-05 12:21 44.47034 5.65078 36929 ft 389 kts 197°
2026-05-05 12:22 44.41748 5.63480 36929 ft 389 kts 197°
2026-05-05 12:22 44.36539 5.61561 36930 ft 384 kts 205°
2026-05-05 12:23 44.31596 5.58846 36944 ft 384 kts 205°
2026-05-05 12:23 44.26622 5.56120 36920 ft 384 kts 205°
2026-05-05 12:24 44.21617 5.53384 36940 ft 384 kts 205°
2026-05-05 12:24 44.16685 5.50700 36938 ft 383 kts 205°
2026-05-05 12:25 44.11722 5.47991 36941 ft 383 kts 205°
2026-05-05 12:25 44.06762 5.45284 36926 ft 383 kts 205°
2026-05-05 12:26 44.01801 5.42596 36939 ft 383 kts 205°
2026-05-05 12:26 43.96846 5.39918 36943 ft 382 kts 205°
2026-05-05 12:27 43.91892 5.37226 36942 ft 382 kts 205°
2026-05-05 12:27 43.86940 5.34548 36928 ft 382 kts 205°
2026-05-05 12:28 43.81984 5.31874 36957 ft 382 kts 205°
2026-05-05 12:28 43.76954 5.29163 36954 ft 394 kts 205°
2026-05-05 12:29 43.74392 5.27784 37086 ft 396 kts 205°
2026-05-05 12:29 43.71816 5.26401 37218 ft 398 kts 205°
2026-05-05 12:29 43.69237 5.25017 37443 ft 397 kts 205°
2026-05-05 12:29 43.66666 5.23637 37700 ft 396 kts 205°
2026-05-05 12:30 43.64096 5.22259 37909 ft 397 kts 205°
2026-05-05 12:30 43.61554 5.20897 38099 ft 397 kts 205°
2026-05-05 12:30 43.58942 5.19501 38291 ft 398 kts 205°
2026-05-05 12:30 43.56354 5.18121 38477 ft 398 kts 205°
2026-05-05 12:31 43.53769 5.16745 38664 ft 399 kts 205°
2026-05-05 12:31 43.51214 5.15386 38791 ft 399 kts 205°
2026-05-05 12:31 43.48634 5.14010 38917 ft 400 kts 205°
2026-05-05 12:31 43.46033 5.12619 38947 ft 401 kts 205°
2026-05-05 12:32 43.40822 5.09842 38948 ft 402 kts 205°
2026-05-05 12:32 43.35980 5.06193 38949 ft 396 kts 217°
2026-05-05 12:33 43.31435 5.01891 38930 ft 396 kts 217°
2026-05-05 12:33 43.26885 4.97613 38946 ft 396 kts 217°
2026-05-05 12:34 43.22331 4.93337 38966 ft 397 kts 217°
2026-05-05 12:34 43.17771 4.89060 38960 ft 398 kts 217°
2026-05-05 12:35 43.13198 4.84784 38958 ft 398 kts 217°
2026-05-05 12:35 43.08623 4.80510 38952 ft 398 kts 217°
2026-05-05 12:36 43.03956 4.76427 38955 ft 400 kts 212°
2026-05-05 12:36 42.99092 4.72748 38963 ft 400 kts 212°
2026-05-05 12:37 42.94230 4.69071 38965 ft 400 kts 212°
2026-05-05 12:37 42.89371 4.65392 38968 ft 399 kts 212°
2026-05-05 12:38 42.84515 4.61727 38971 ft 399 kts 212°
2026-05-05 12:38 42.79665 4.58067 38973 ft 398 kts 212°
2026-05-05 12:39 42.74819 4.54412 38979 ft 398 kts 212°
2026-05-05 12:39 42.70000 4.50793 38973 ft 398 kts 212°
2026-05-05 12:40 42.65147 4.47155 38973 ft 398 kts 212°
2026-05-05 12:40 42.60295 4.43520 38971 ft 398 kts 212°
2026-05-05 12:41 42.55443 4.39886 38966 ft 398 kts 212°
2026-05-05 12:41 42.50588 4.36266 38958 ft 398 kts 212°
2026-05-05 12:42 42.45733 4.32665 38979 ft 397 kts 212°
2026-05-05 12:42 42.40891 4.29061 38972 ft 397 kts 213°
2026-05-05 12:43 42.36057 4.25469 38970 ft 396 kts 212°
2026-05-05 12:43 42.31224 4.21888 38956 ft 396 kts 213°
2026-05-05 12:44 42.26395 4.18320 38975 ft 395 kts 213°
2026-05-05 12:44 42.21570 4.14766 38966 ft 395 kts 213°
2026-05-05 12:45 42.16741 4.11207 38959 ft 395 kts 213°
2026-05-05 12:45 42.11920 4.07648 38934 ft 395 kts 213°
2026-05-05 12:46 42.07092 4.04105 38946 ft 395 kts 213°
2026-05-05 12:46 42.02264 4.00576 38955 ft 395 kts 213°
2026-05-05 12:47 41.97443 3.97049 38956 ft 395 kts 213°
2026-05-05 12:47 41.92617 3.93525 38954 ft 395 kts 213°
2026-05-05 12:48 41.87742 3.90123 38940 ft 395 kts 211°
2026-05-05 12:48 41.82811 3.86868 38952 ft 395 kts 211°
2026-05-05 12:49 41.77885 3.83611 38960 ft 394 kts 211°
2026-05-05 12:49 41.72986 3.80330 38977 ft 394 kts 212°
2026-05-05 12:50 41.68085 3.77046 38957 ft 394 kts 212°
2026-05-05 12:50 41.63208 3.73786 38958 ft 394 kts 212°
2026-05-05 12:51 41.58282 3.70502 38960 ft 394 kts 212°
2026-05-05 12:51 41.53377 3.67240 38962 ft 394 kts 212°
2026-05-05 12:52 41.48478 3.63972 38937 ft 393 kts 212°
2026-05-05 12:52 41.43578 3.60728 38950 ft 393 kts 211°
2026-05-05 12:53 41.38683 3.57498 38956 ft 392 kts 211°
2026-05-05 12:53 41.33833 3.54281 38959 ft 392 kts 212°
2026-05-05 12:54 41.26512 3.49436 38950 ft 392 kts 211°
2026-05-05 12:55 41.21623 3.46231 38964 ft 391 kts 211°
2026-05-05 12:55 41.16519 3.43617 38958 ft 401 kts 198°
2026-05-05 12:56 41.11041 3.42172 38963 ft 402 kts 198°
2026-05-05 12:56 41.05561 3.40726 38941 ft 401 kts 198°
2026-05-05 12:57 41.00088 3.39285 38947 ft 401 kts 198°
2026-05-05 12:57 40.94619 3.37854 38954 ft 401 kts 198°
2026-05-05 12:58 40.89149 3.36423 38959 ft 400 kts 198°
2026-05-05 12:58 40.83690 3.34984 38944 ft 400 kts 198°
2026-05-05 12:59 40.78229 3.33550 38952 ft 400 kts 198°
2026-05-05 12:59 40.72779 3.32118 38956 ft 399 kts 198°
2026-05-05 13:00 40.64606 3.29980 38959 ft 399 kts 198°
2026-05-05 13:01 40.53715 3.27164 38960 ft 399 kts 198°
2026-05-05 13:01 40.48268 3.25757 38959 ft 399 kts 198°
2026-05-05 13:02 40.43746 3.24586 38958 ft 399 kts 198°
2026-05-05 13:02 40.37423 3.22945 38947 ft 398 kts 198°
2026-05-05 13:03 40.31994 3.21542 38954 ft 397 kts 198°
2026-05-05 13:03 40.26572 3.20142 38956 ft 397 kts 198°
2026-05-05 13:04 40.22035 3.18965 38954 ft 397 kts 198°
2026-05-05 13:04 40.16661 3.17577 38933 ft 396 kts 198°
2026-05-05 13:05 40.11261 3.16203 38941 ft 396 kts 198°
2026-05-05 13:05 40.05823 3.14803 38946 ft 395 kts 198°
2026-05-05 13:06 40.00463 3.13434 38953 ft 395 kts 198°
2026-05-05 13:06 39.95072 3.12055 38936 ft 395 kts 199°
2026-05-05 13:07 39.90084 3.09534 38935 ft 381 kts 214°
2026-05-05 13:07 39.85460 3.06146 38938 ft 381 kts 214°
2026-05-05 13:08 39.80826 3.02773 38959 ft 382 kts 214°
2026-05-05 13:08 39.76187 2.99406 38924 ft 382 kts 214°
2026-05-05 13:09 39.71543 2.96046 38937 ft 382 kts 214°
2026-05-05 13:09 39.66884 2.92676 38176 ft 387 kts 214°
2026-05-05 13:10 39.64529 2.90968 37487 ft 386 kts 213°
2026-05-05 13:10 39.62192 2.89280 36963 ft 382 kts 213°
2026-05-05 13:10 39.59877 2.87611 36391 ft 379 kts 213°
2026-05-05 13:10 39.57584 2.85960 35943 ft 374 kts 213°
2026-05-05 13:11 39.55329 2.84341 35513 ft 368 kts 213°
2026-05-05 13:11 39.53104 2.82742 35065 ft 363 kts 212°
2026-05-05 13:11 39.50910 2.81163 34638 ft 358 kts 212°
2026-05-05 13:11 39.48746 2.79603 34205 ft 354 kts 212°
2026-05-05 13:12 39.46604 2.78063 33756 ft 350 kts 212°
2026-05-05 13:12 39.44526 2.76472 33314 ft 343 kts 218°
2026-05-05 13:12 39.42723 2.74489 32822 ft 338 kts 227°
2026-05-05 13:12 39.41219 2.72171 32345 ft 335 kts 231°
2026-05-05 13:13 39.39763 2.69838 31879 ft 332 kts 231°
2026-05-05 13:13 39.38314 2.67536 31421 ft 329 kts 231°
2026-05-05 13:13 39.36875 2.65257 30981 ft 326 kts 231°
2026-05-05 13:13 39.35450 2.62999 30532 ft 323 kts 231°
2026-05-05 13:14 39.34036 2.60762 30104 ft 320 kts 231°
2026-05-05 13:14 39.32637 2.58553 29618 ft 316 kts 231°
2026-05-05 13:14 39.31272 2.56398 29195 ft 311 kts 231°
2026-05-05 13:14 39.29916 2.54252 28820 ft 306 kts 231°
2026-05-05 13:15 39.28579 2.52137 28425 ft 302 kts 231°
2026-05-05 13:15 39.27239 2.50024 28033 ft 298 kts 231°
2026-05-05 13:15 39.25955 2.47996 27654 ft 294 kts 231°
2026-05-05 13:15 39.24670 2.45966 27274 ft 290 kts 231°
2026-05-05 13:16 39.23394 2.43954 26878 ft 288 kts 232°
2026-05-05 13:16 39.22130 2.41963 26491 ft 286 kts 232°
2026-05-05 13:16 39.20871 2.39982 26095 ft 285 kts 232°
2026-05-05 13:16 39.19619 2.38010 25699 ft 283 kts 232°
2026-05-05 13:17 39.18377 2.36054 25293 ft 281 kts 232°
2026-05-05 13:17 39.17143 2.34108 24880 ft 280 kts 232°
2026-05-05 13:17 39.15913 2.32174 24472 ft 279 kts 232°
2026-05-05 13:17 39.14686 2.30246 24065 ft 278 kts 232°
2026-05-05 13:18 39.13463 2.28326 23657 ft 277 kts 232°
2026-05-05 13:18 39.12237 2.26409 23179 ft 277 kts 232°
2026-05-05 13:18 39.11017 2.24502 22756 ft 275 kts 232°
2026-05-05 13:18 39.09809 2.22611 22328 ft 273 kts 232°
2026-05-05 13:19 39.08610 2.20733 21950 ft 270 kts 232°
2026-05-05 13:19 39.07419 2.18870 21562 ft 269 kts 232°
2026-05-05 13:19 39.06233 2.17014 21176 ft 268 kts 232°
2026-05-05 13:19 39.05053 2.15168 20794 ft 267 kts 232°
2026-05-05 13:20 39.03874 2.13325 20408 ft 266 kts 233°
2026-05-05 13:20 39.02698 2.11489 20019 ft 266 kts 232°
2026-05-05 13:20 39.01517 2.09649 19648 ft 266 kts 232°
2026-05-05 13:20 39.00337 2.07810 19265 ft 267 kts 233°
2026-05-05 13:21 38.99156 2.05968 18892 ft 267 kts 233°
2026-05-05 13:21 38.97972 2.04120 18513 ft 268 kts 233°
2026-05-05 13:21 38.96785 2.02266 18124 ft 269 kts 233°
2026-05-05 13:21 38.95590 2.00411 17717 ft 269 kts 232°
2026-05-05 13:22 38.94412 1.98580 17343 ft 269 kts 232°
2026-05-05 13:22 38.93237 1.96756 17171 ft 261 kts 232°
2026-05-05 13:22 38.92097 1.94989 17042 ft 253 kts 232°
2026-05-05 13:22 38.90992 1.93253 16803 ft 249 kts 236°
2026-05-05 13:23 38.90160 1.91337 16546 ft 245 kts 245°
2026-05-05 13:23 38.89428 1.89365 16311 ft 244 kts 244°
2026-05-05 13:23 38.88692 1.87402 15977 ft 245 kts 244°
2026-05-05 13:23 38.87948 1.85426 15616 ft 247 kts 244°
2026-05-05 13:24 38.87199 1.83437 15269 ft 248 kts 244°
2026-05-05 13:24 38.86444 1.81432 14872 ft 251 kts 244°
2026-05-05 13:24 38.85781 1.79348 14482 ft 255 kts 259°
2026-05-05 13:24 38.85999 1.77081 14088 ft 267 kts 291°
2026-05-05 13:25 38.87244 1.75224 13609 ft 286 kts 316°
2026-05-05 13:25 38.88950 1.73813 13086 ft 298 kts 328°
2026-05-05 13:25 38.91017 1.73221 12566 ft 317 kts 359°
2026-05-05 13:25 38.93151 1.74065 12071 ft 330 kts 30°
2026-05-05 13:26 38.94790 1.76136 11614 ft 335 kts 55°
2026-05-05 13:26 38.95918 1.78769 11091 ft 338 kts 66°
2026-05-05 13:26 38.96802 1.81584 10536 ft 342 kts 70°
2026-05-05 13:26 38.97864 1.84267 9990 ft 343 kts 50°
2026-05-05 13:27 38.99695 1.86106 9354 ft 331 kts 20°
2026-05-05 13:27 39.01875 1.86549 8866 ft 309 kts 348°
2026-05-05 13:27 39.03787 1.85629 8418 ft 286 kts 319°
2026-05-05 13:27 39.04942 1.83718 8012 ft 263 kts 285°
2026-05-05 13:28 39.05066 1.81488 7696 ft 244 kts 259°
2026-05-05 13:28 39.04613 1.79460 7406 ft 231 kts 244°
2026-05-05 13:28 39.03893 1.77668 7074 ft 221 kts 243°
2026-05-05 13:28 39.03203 1.75919 6735 ft 220 kts 243°
2026-05-05 13:29 39.02516 1.74165 6396 ft 219 kts 243°
2026-05-05 13:29 39.01814 1.72426 6060 ft 219 kts 242°
2026-05-05 13:29 39.01100 1.70690 5783 ft 220 kts 242°
2026-05-05 13:29 39.00385 1.68964 5484 ft 218 kts 243°
2026-05-05 13:30 38.99670 1.67244 5176 ft 218 kts 243°
2026-05-05 13:30 38.98957 1.65530 4856 ft 217 kts 243°
2026-05-05 13:30 38.98245 1.63823 4533 ft 217 kts 243°
2026-05-05 13:30 38.97534 1.62116 4221 ft 217 kts 243°
2026-05-05 13:31 38.96821 1.60405 3896 ft 217 kts 243°
2026-05-05 13:31 38.96108 1.58693 3577 ft 218 kts 243°
2026-05-05 13:31 38.95393 1.56976 3269 ft 218 kts 244°
2026-05-05 13:31 38.94681 1.55252 2943 ft 219 kts 243°
2026-05-05 13:32 38.93967 1.53517 2629 ft 220 kts 244°
2026-05-05 13:32 38.93250 1.51774 2303 ft 221 kts 245°
2026-05-05 13:32 38.92538 1.50042 1972 ft 215 kts 245°
2026-05-05 13:32 38.91858 1.48392 1686 ft 203 kts 245°
2026-05-05 13:33 38.91213 1.46827 1419 ft 194 kts 244°
2026-05-05 13:33 38.90603 1.45348 1189 ft 180 kts 244°
2026-05-05 13:33 38.90046 1.44000 963 ft 165 kts 244°
2026-05-05 13:33 38.89529 1.42734 728 ft 155 kts 243°
2026-05-05 13:34 38.89036 1.41531 566 ft 143 kts 243°
2026-05-05 13:34 38.88583 1.40456 346 ft 135 kts 242°
2026-05-05 13:34 38.88145 1.39394 161 ft 130 kts 241°
2026-05-05 13:34 38.87733 1.38395 27 ft 124 kts 242°
2026-05-05 13:35 38.87422 1.37643 9 ft 57 kts 242°
2026-05-05 13:35 38.87302 1.37354 11 ft 33 kts 242°
2026-05-05 13:35 38.87259 1.37128 11 ft 23 kts 268°
2026-05-05 13:35 38.87262 1.36973 9 ft 11 kts 272°
2026-05-05 13:36 38.87287 1.36871 9 ft 14 kts 314°
2026-05-05 13:36 38.87370 1.36819 9 ft 13 kts 332°
2026-05-05 13:36 38.87442 1.36815 11 ft 11 kts 48°
2026-05-05 13:36 38.87476 1.36895 10 ft 10 kts 62°
2026-05-05 13:37 38.87508 1.36968 9 ft 10 kts 62°
2026-05-05 13:37 38.87539 1.37045 9 ft 9 kts 63°
2026-05-05 13:37 38.87575 1.37133 10 ft 15 kts 63°
2026-05-05 13:37 38.87621 1.37247 9 ft 13 kts 62°
2026-05-05 13:38 38.87654 1.37325 9 ft 2 kts 61°
2026-05-05 13:38 38.87668 1.37334 9 ft 4 kts 11°
2026-05-05 13:38 38.87690 1.37325 9 ft 3 kts 333°
2026-05-05 13:38 38.87707 1.37313 8 ft 3 kts 331°
2026-05-05 13:39 38.87717 1.37305 9 ft 0 kts 330°